{"data":{"norad_id":67351,"intl_designator":"2026-003T","name":"STARLINK-36478","alt_names":[],"object_type":"PAYLOAD","status":"ACTIVE","operator":null,"country":"US","launch_date":"2026-01-09","launch_site_code":"AFETR","launch_vehicle":null,"mission":null,"orbit_class":"UNKNOWN","rcs_meters":null,"size_class":null,"mass_kg":null,"dimensions":null,"purposes":["comms"],"wikipedia_slug":null,"has_3d_model":false,"image_url":null,"decayed_at":null,"tle_current":{"epoch":"2026-09-19T22:14:02.449536Z","epoch_age_seconds":125001,"freshness":"FRESH","line1":"1 67351U 26003T   26262.92641724  .00011894  00000+0  44104-3 0  9994","line2":"2 67351  43.0006 209.7945 0001601 263.8376  96.2293 15.27580584 38531","mean_motion":15.27580584,"eccentricity":0.0001601,"inclination_deg":43.0006,"raan_deg":209.7945,"arg_perigee_deg":263.8376,"mean_anomaly_deg":96.2293,"bstar":0.00044104,"rev_number":3853,"period_min":94.266712675107,"perigee_km":481.94887172011,"apogee_km":484.14582294812,"semimajor_km":6861.1843473341,"source":"CELESTRAK","updated_at":"2026-09-20T09:00:43.514933Z"}}}